Retour au catalogue

STARLINK-36505

ActifCommunicationsVLEO
NORAD 67463·PAYLOAD·🇺🇸 United States

Lancé Jan 14, 2026 depuis Cape Canaveral Space Force Station

Loading…

Prochains Passages (prochaines 24 heures)

TLE

FraisSource: CelesTrak SupGP

Époque: Sep 14, 2026, 21:20 UTC

1 67463C 26008U   26257.88937500  .00023618  00000+0  85533-3 0  2577
2 67463  42.9993 216.6208 0001129 260.5927 290.6420 15.27571113    10

Suivez STARLINK-36505 en temps réel avec AllMySat

Download on the App Store